96P/Machholz 1 (2002)

Japanese version
Home page
Total 6,336 html files since Dec. 4, 1995
Updated on May 29, 2007

---------------------------------------------------------------------

* Profile

* Orbital Elements

Epoch 2002 Jan. 6.0 TT = JDT 2452280.5  
T 2002 Jan. 8.63372 TT                                  Muraoka 
q   0.1241047            (2000.0)            P               Q
n   0.18844371     Peri.   14.58066     -0.20251443     -0.45938267
a   3.0131098      Node    94.60846     +0.78895254     -0.59970815
e   0.9588118      Incl.   60.18661     +0.58012222     +0.65522339
P   5.23
From 105 observations 1986-1997, mean residual 0".90.

* Finding Charts

* Magnitudes Graph

        m1 = 12.7 + 5 log d + 12.0 log r

---------------------------------------------------------------------

The orbital elements are calculated by Kenji Muraoka.
The charts are made with StellaNavigator Ver.2.0 for Windows (AstroArts / ASCII).
The magnitudes graphs are made with Comet for Windows.

---------------------------------------------------------------------

Copyright(C) 1995-2008 Seiichi Yoshida (comet@aerith.net). All rights reserved.